Location: Hilton Head Island
(32.2163°N, 80.7526°W)
Time: 23:25:24
(UTC-04:00)

Explorer 7 - Pass Details

Date: 25 February 2026
Orbit: 430 x 542 km, 50.2° (Epoch: 8 March)

Event Time Altitude Azimuth Distance (km) Brightness Sun altitude
Rises 18:06:01 0° 323° (NW) 2,494 10.5 1.6°
Reaches altitude 10° 18:08:23 10° 337° (NNW) 1,638 9.4 1.1°
Maximum altitude 18:11:32 26° 35° (NE) 995 7.8 0.4°
Drops below altitude 10° 18:14:47 10° 93° (E) 1,692 8.7 -0.3°
Sets 18:17:16 0° 106° (ESE) 2,597 9.7 -0.8°
